GW1550 Weather Reports


time (UTC)temp
C
wind
direction
speed
KPH
gust
KPH
rain 1hr
cm
rain 24hr
cm
rain mn
cm
humidity
%
barometer
mb
20260507065057 1 353 0.0 0.0 0.00 0.00 0.00 91
20260507064555 0 265 0.0 0.0 0.00 0.00 0.00 95
20260507064053 0 19 0.0 0.0 0.00 0.00 0.00 96
20260507063550 0 72 0.0 0.0 0.00 0.00 0.00 96
20260507063048 0 58 0.0 0.0 0.00 0.00 0.00 96
20260507062544 0 87 0.0 0.0 0.00 0.00 0.00 96
20260507062042 0 56 0.0 0.0 0.00 0.00 0.00 96
20260507061539 0 336 0.0 0.0 0.00 0.00 0.00 96
20260507061037 0 64 0.0 0.0 0.00 0.00 0.00 96
20260507060535 0 32 0.0 0.0 0.00 0.00 0.00 96
20260507060031 0 20 0.0 0.0 0.00 0.00 0.00 96
20260507055531 0 39 0.0 0.0 0.00 0.00 0.00 96
20260507055028 0 16 0.0 0.0 0.00 0.00 0.00 96
20260507054524 0 89 0.0 0.0 0.00 0.00 0.00 96
20260507054021 0 98 0.0 0.0 0.00 0.00 0.00 95
20260507053519 0 12 0.0 0.0 0.00 0.00 0.00 95
20260507053018 0 46 0.0 0.0 0.00 0.00 0.00 95
20260507052515 -1 73 0.0 0.0 0.00 0.00 0.00 95
20260507052011 0 3 0.0 0.0 0.00 0.00 0.00 95
20260507051509 0 17 0.0 0.0 0.00 0.00 0.00 95
20260507051006 0 325 0.0 0.0 0.00 0.00 0.00 95
20260507050502 0 33 0.0 0.0 0.00 0.00 0.00 95
20260507045959 0 47 0.0 0.0 0.00 0.00 0.00 95
20260507045455 0 314 0.0 0.0 0.00 0.00 0.00 95
20260507044953 0 58 0.0 0.0 0.00 0.00 0.00 95
20260507044449 0 1 0.0 0.0 0.00 0.00 0.00 95
20260507043945 0 42 0.0 0.0 0.00 0.00 0.00 95
20260507043442 0 56 0.0 0.0 0.00 0.00 0.00 94
20260507042938 0 106 0.0 0.0 0.00 0.00 0.00 94
20260507042435 0 38 0.0 0.0 0.00 0.00 0.00 94
20260507041931 0 59 0.0 0.0 0.00 0.00 0.00 94
20260507041428 0 38 0.0 0.0 0.00 0.00 0.00 94
20260507040925 0 22 0.0 0.0 0.00 0.00 0.00 94
20260507040421 0 27 0.0 0.0 0.00 0.00 0.00 94
20260507035917 0 10 0.0 0.0 0.00 0.00 0.00 94
20260507035413 0 64 0.0 0.0 0.00 0.00 0.00 93
20260507034910 0 19 0.0 0.0 0.00 0.00 0.00 93
20260507034407 0 51 0.0 0.0 0.00 0.00 0.00 93
20260507033905 0 340 0.0 0.0 0.00 0.00 0.00 92
20260507033403 1 54 0.0 0.0 0.00 0.00 0.00 91
20260507032900 1 73 0.0 0.0 0.00 0.00 0.00 91
20260507032356 1 20 0.0 0.0 0.00 0.00 0.00 91
20260507031852 1 338 0.0 0.0 0.00 0.00 0.00 91
20260507031349 1 356 0.0 0.0 0.00 0.00 0.00 91
20260507030846 1 14 0.0 0.0 0.00 0.00 0.00 91
20260507030344 1 13 0.0 0.0 0.00 0.00 0.00 91
20260507025840 1 357 0.0 0.0 0.00 0.00 0.00 91
20260507025338 1 331 0.0 0.0 0.00 0.00 0.00 92
20260507024835 1 326 0.0 0.0 0.00 0.00 0.00 92
20260507024332 1 30 0.0 0.0 0.00 0.00 0.00 92
20260507023828 1 39 0.0 0.0 0.00 0.00 0.00 92
20260507023325 2 20 0.0 0.0 0.00 0.00 0.00 91
20260507022822 2 28 0.0 0.0 0.00 0.00 0.00 90
20260507022319 2 29 0.0 0.0 0.00 0.00 0.00 89
20260507021815 2 65 0.0 0.0 0.00 0.00 0.00 88
20260507021310 2 76 0.0 0.0 0.00 0.00 0.00 87
20260507020809 2 72 0.0 0.0 0.00 0.00 0.00 84
20260507020305 3 66 0.0 0.0 0.00 0.00 0.00 83
20260507015802 3 89 0.0 0.0 0.00 0.00 0.00 82
20260507015259 3 89 0.0 0.0 0.00 0.00 0.00 81
20260507014757 4 110 0.0 0.0 0.00 0.00 0.00 79
20260507014253 4 89 0.0 0.0 0.00 0.00 0.00 79
20260507013749 5 69 0.0 0.0 0.00 0.00 0.00 76
20260507013247 5 325 0.0 0.0 0.00 0.00 0.00 73
20260507012744 6 110 0.0 0.0 0.00 0.00 0.00 71
20260507012245 6 296 0.0 0.0 0.00 0.00 0.00 69
20260507011743 6 320 0.0 0.0 0.00 0.00 0.00 70
20260507011239 6 313 0.0 0.0 0.00 0.00 0.00 70
20260507010738 6 217 0.0 0.0 0.00 0.00 0.00 68
20260507010235 6 185 0.0 0.0 0.00 0.00 0.00 68
20260507005733 6 113 0.0 0.0 0.00 0.00 0.00 67
20260507005229 6 294 0.0 0.0 0.00 0.00 0.00 68
20260507004725 6 279 0.0 0.0 0.00 0.00 0.00 66
20260507004223 6 276 0.0 0.0 0.00 0.00 0.00 66
20260507003719 6 208 0.0 0.0 0.00 0.00 0.00 65
20260507003214 6 233 0.0 0.0 0.00 0.00 0.00 66
20260507002711 7 245 0.0 0.0 0.00 0.00 0.00 66
20260507002207 6 232 0.0 0.0 0.00 0.00 0.00 69
20260507001704 7 172 0.0 0.0 0.00 0.00 0.00 70
20260507001201 6 122 0.0 0.0 0.00 0.00 0.00 71
20260507000657 5 237 0.0 0.0 0.00 0.00 0.00 75
20260507000153 5 14 0.0 0.0 0.00 0.00 0.00 78
20260506235650 5 4 0.0 0.0 0.00 0.00 0.00 75
20260506235145 6 343 0.0 0.0 0.00 0.00 0.00 76
20260506234643 5 23 0.0 0.0 0.00 0.00 0.00 81
20260506234140 4 203 0.0 0.0 0.00 0.00 0.00 81
20260506233637 4 15 0.0 0.0 0.00 0.00 0.00 83
20260506233134 3 20 0.0 0.0 0.00 0.00 0.00 85
20260506232630 3 89 0.0 0.0 0.00 0.00 0.00 86
20260506232125 3 53 0.0 0.0 0.00 0.00 0.00 87
20260506231623 3 7 0.0 0.0 0.00 0.00 0.00 88
20260506231121 3 31 0.0 0.0 0.00 0.00 0.00 89
20260506230618 3 83 0.0 0.0 0.00 0.00 0.00 90
20260506230115 3 73 0.0 0.0 0.00 0.00 0.00 91
20260506225611 3 78 0.0 0.0 0.00 0.00 0.00 92
20260506225108 3 92 0.0 0.0 0.00 0.00 0.00 93
20260506224604 2 83 0.0 0.0 0.00 0.00 0.00 94
20260506224101 2 86 0.0 1.6 0.00 0.00 0.00 94
20260506223557 2 80 0.0 1.6 0.00 0.00 0.00 93
20260506223053 2 94 0.0 1.6 0.00 0.00 0.00 93
20260506222550 2 94 0.0 1.6 0.00 0.00 0.00 92
20260506222047 3 88 0.0 1.6 0.00 0.00 0.00 91
20260506221544 3 100 0.0 1.6 0.00 0.00 0.00 89
20260506221042 3 89 0.0 1.6 0.00 0.00 0.00 85
20260506220538 3 119 0.0 1.6 0.00 0.00 0.00 85
20260506220034 3 112 0.0 1.6 0.00 0.00 0.00 85
20260506215531 3 147 0.0 1.6 0.00 0.00 0.00 85
20260506215026 3 143 1.6 1.6 0.00 0.00 0.00 84
20260506214524 3 138 0.0 1.6 0.00 0.00 0.00 87
20260506214021 3 122 0.0 1.6 0.00 0.00 0.00 89
20260506213519 2 267 0.0 0.0 0.00 0.00 0.00 88
20260506213016 2 204 0.0 1.6 0.00 0.00 0.00 91
20260506212512 2 221 0.0 1.6 0.00 0.00 0.00 94
20260506212007 1 153 0.0 1.6 0.00 0.00 0.00 94
20260506211503 2 192 0.0 1.6 0.00 0.00 0.00 94
20260506211001 2 204 0.0 1.6 0.00 0.00 0.00 95
20260506210456 2 179 0.0 1.6 0.00 0.00 0.00 96
20260506205954 2 184 0.0 0.0 0.00 0.00 0.00 96
20260506205450 1 207 0.0 1.6 0.00 0.00 0.00 96
20260506204946 1 211 0.0 1.6 0.00 0.00 0.00 97
20260506204444 2 231 0.0 1.6 0.00 0.00 0.00 96
20260506203941 2 180 0.0 1.6 0.00 0.00 0.00 96
20260506203438 2 142 0.0 1.6 0.00 0.00 0.00 96
20260506202935 2 145 1.6 1.6 0.00 0.00 0.00 95
20260506202432 1 154 0.0 1.6 0.00 0.00 0.00 95
20260506201929 1 176 0.0 1.6 0.00 0.00 0.00 95
20260506201426 2 143 1.6 1.6 0.00 0.00 0.00 96
20260506200923 1 136 0.0 1.6 0.00 0.00 0.00 96
20260506200419 2 168 0.0 1.6 0.00 0.00 0.00 96
20260506195916 1 161 0.0 1.6 0.00 0.00 0.00 96
20260506195413 1 138 1.6 1.6 0.00 0.00 0.00 96
20260506194909 2 147 0.0 1.6 0.00 0.00 0.00 96
20260506194406 2 147 1.6 1.6 0.00 0.00 0.00 97
20260506193903 1 177 0.0 1.6 0.00 0.00 0.00 97
20260506193400 2 131 0.0 1.6 0.00 0.00 0.00 98
20260506192857 2 158 0.0 1.6 0.00 0.00 0.00 98
20260506192354 1 155 0.0 1.6 0.00 0.00 0.00 98
20260506191851 1 139 1.6 1.6 0.00 0.00 0.00 99
20260506191347 2 129 1.6 1.6 0.00 0.00 0.00 99
20260506190844 1 145 1.6 1.6 0.00 0.00 0.00 99
20260506190340 1 165 0.0 1.6 0.00 0.00 0.00 99
20260506185837 1 115 0.0 1.6 0.00 0.00 0.00 99
20260506185334 1 121 0.0 0.0 0.00 0.00 0.00 99
20260506184831 0 137 0.0 1.6 0.00 0.00 0.00 99
20260506184328 1 101 0.0 1.6 0.00 0.00 0.00 99
20260506183826 2 89 0.0 1.6 0.00 0.00 0.00 99
20260506183320 1 114 0.0 1.6 0.00 0.00 0.00 99
20260506182818 1 136 1.6 1.6 0.00 0.00 0.00 99
20260506182315 0 118 0.0 1.6 0.00 0.00 0.00 98
20260506181813 0 103 0.0 1.6 0.00 0.00 0.00 98
20260506181311 0 104 0.0 1.6 0.00 0.00 0.00 97
20260506180808 1 93 1.6 1.6 0.00 0.00 0.00 97
20260506180303 1 139 1.6 1.6 0.00 0.00 0.00 96
20260506175800 1 88 0.0 1.6 0.00 0.00 0.00 96
20260506175257 1 92 1.6 1.6 0.00 0.00 0.00 96
20260506174754 0 88 1.6 1.6 0.00 0.00 0.00 96
20260506174251 0 92 1.6 1.6 0.00 0.00 0.00 96
20260506173749 0 91 1.6 1.6 0.00 0.00 0.00 96
20260506173246 0 103 0.0 1.6 0.00 0.00 0.00 95
20260506172742 0 93 0.0 1.6 0.00 0.00 0.00 95
20260506172239 1 105 1.6 3.2 0.00 0.00 0.00 95
20260506171737 1 92 0.0 1.6 0.00 0.00 0.00 94
20260506171234 1 83 0.0 1.6 0.00 0.00 0.00 93
20260506170731 1 93 0.0 1.6 0.00 0.00 0.00 92
20260506170228 1 88 1.6 1.6 0.00 0.00 0.00 92
20260506165726 1 77 0.0 1.6 0.00 0.00 0.00 91
20260506165223 1 86 1.6 1.6 0.00 0.00 0.00 91
20260506164720 1 33 0.0 3.2 0.00 0.00 0.00 90
20260506164217 1 1 0.0 1.6 0.00 0.00 0.00 90
20260506163714 2 4 0.0 3.2 0.00 0.00 0.00 89
20260506163208 2 86 1.6 1.6 0.00 0.00 0.00 90
20260506162705 1 83 0.0 1.6 0.00 0.00 0.00 91
20260506162202 1 97 0.0 3.2 0.00 0.00 0.00 91
20260506161700 1 76 0.0 1.6 0.00 0.00 0.00 91
20260506161156 2 93 1.6 1.6 0.00 0.00 0.00 92
20260506160654 1 69 0.0 1.6 0.00 0.00 0.00 92
20260506160151 1 86 1.6 1.6 0.00 0.00 0.00 92
20260506155649 1 94 1.6 1.6 0.00 0.00 0.00 92
20260506155146 1 87 1.6 4.8 0.00 0.00 0.00 94
20260506153248 1 101 1.6 3.2 0.00 0.00 0.00 95
20260506152745 1 87 1.6 3.2 0.00 0.00 0.00 96
20260506152242 1 102 1.6 3.2 0.00 0.00 0.00 96
20260506151741 1 104 1.6 3.2 0.00 0.00 0.00 96
20260506151237 1 88 1.6 3.2 0.00 0.00 0.00 96
20260506150734 1 94 1.6 1.6 0.00 0.00 0.00 96
20260506150231 1 98 1.6 1.6 0.00 0.00 0.00 97
20260506145728 1 102 1.6 1.6 0.00 0.00 0.00 97
20260506145224 0 85 0.0 1.6 0.00 0.00 0.00 97
20260506144722 0 97 1.6 1.6 0.00 0.00 0.00 97
20260506144219 0 98 1.6 1.6 0.00 0.00 0.00 97
20260506143716 0 96 0.0 1.6 0.00 0.00 0.00 97
20260506143214 0 81 1.6 1.6 0.00 0.00 0.00 97
20260506142712 0 106 1.6 1.6 0.00 0.00 0.00 97
20260506142210 0 98 1.6 1.6 0.00 0.00 0.00 97
20260506141708 0 102 0.0 1.6 0.00 0.00 0.00 97
20260506141206 0 87 1.6 1.6 0.00 0.00 0.00 97
20260506140703 0 80 0.0 1.6 0.00 0.00 0.00 97
20260506140200 0 92 1.6 1.6 0.00 0.00 0.00 97
20260506135657 0 78 1.6 1.6 0.00 0.00 0.00 96
20260506135153 0 92 1.6 1.6 0.00 0.00 0.00 96
20260506134650 0 83 1.6 1.6 0.00 0.00 0.00 96
20260506134146 0 94 1.6 1.6 0.00 0.00 0.00 96
20260506133643 0 83 0.0 3.2 0.00 0.00 0.00 96
20260506133140 0 85 1.6 1.6 0.00 0.00 0.00 96
20260506132637 0 73 0.0 3.2 0.00 0.00 0.00 96
20260506132134 0 337 0.0 0.0 0.00 0.00 0.00 96
20260506131631 0 29 0.0 1.6 0.00 0.00 0.00 95
20260506131127 0 64 0.0 1.6 0.00 0.00 0.00 95
20260506130624 0 31 1.6 1.6 0.00 0.00 0.00 94
20260506130122 1 0 0.0 1.6 0.00 0.00 0.00 94
20260506125620 1 357 0.0 1.6 0.00 0.00 0.00 94
20260506125117 1 48 0.0 1.6 0.00 0.00 0.00 94
20260506124615 1 53 0.0 1.6 0.00 0.00 0.00 94
20260506124113 1 77 0.0 1.6 0.00 0.00 0.00 94
20260506123610 1 59 1.6 1.6 0.00 0.00 0.00 93
20260506123109 1 31 0.0 1.6 0.00 0.00 0.00 93
20260506122605 1 58 0.0 1.6 0.00 0.00 0.00 93
20260506122103 1 13 0.0 1.6 0.00 0.00 0.00 92
20260506121600 1 328 0.0 1.6 0.00 0.00 0.00 92
20260506121056 1 38 0.0 1.6 0.00 0.00 0.00 91
20260506120555 1 91 0.0 1.6 0.00 0.00 0.00 91
20260506120051 1 84 0.0 1.6 0.00 0.00 0.00 91
20260506115549 1 94 0.0 1.6 0.00 0.00 0.00 91
20260506115048 1 33 1.6 1.6 0.00 0.00 0.00 91
20260506114545 1 89 0.0 0.0 0.00 0.00 0.00 90
20260506114043 1 98 0.0 0.0 0.00 0.00 0.00 90
20260506113541 1 101 0.0 1.6 0.00 0.00 0.00 89
20260506113038 2 27 0.0 1.6 0.00 0.00 0.00 89
20260506112534 2 351 0.0 1.6 0.00 0.00 0.00 89
20260506112031 2 353 0.0 1.6 0.00 0.00 0.00 89
20260506111530 2 78 0.0 1.6 0.00 0.00 0.00 88
20260506111026 2 104 0.0 0.0 0.00 0.00 0.00 88
20260506110524 2 58 0.0 1.6 0.00 0.00 0.00 87
20260506110021 2 84 0.0 1.6 0.00 0.00 0.00 87
20260506105517 2 343 0.0 1.6 0.00 0.00 0.00 87
20260506105015 2 82 0.0 1.6 0.00 0.00 0.00 88
20260506104513 2 50 0.0 1.6 0.00 0.00 0.00 88
20260506104010 2 19 0.0 1.6 0.00 0.00 0.00 88
20260506103507 2 14 0.0 1.6 0.00 0.00 0.00 88
20260506103004 2 45 0.0 1.6 0.00 0.00 0.00 88
20260506102502 2 27 0.0 1.6 0.00 0.00 0.00 88
20260506101959 2 52 0.0 1.6 0.00 0.00 0.00 89
20260506101455 2 28 1.6 1.6 0.00 0.00 0.00 90
20260506100953 2 7 1.6 1.6 0.00 0.00 0.00 92
20260506100451 1 340 0.0 1.6 0.00 0.00 0.00 94
20260506095949 1 43 0.0 1.6 0.00 0.00 0.00 96
20260506095447 1 37 0.0 1.6 0.00 0.00 0.00 97
20260506094943 1 60 0.0 1.6 0.00 0.00 0.00 98
20260506094442 1 38 0.0 1.6 0.00 0.00 0.00 98
20260506093939 1 42 0.0 1.6 0.00 0.00 0.00 99
20260506093437 1 43 0.0 1.6 0.00 0.00 0.00 99
20260506092934 1 18 0.0 1.6 0.00 0.00 0.00 99
20260506092432 1 47 0.0 1.6 0.00 0.00 0.00 99
20260506091928 1 35 0.0 1.6 0.00 0.00 0.00 99
20260506091427 1 15 0.0 1.6 0.00 0.00 0.00 99
20260506090924 1 54 0.0 1.6 0.00 0.00 0.00 99
20260506090421 1 29 0.0 1.6 0.00 0.00 0.00 99
20260506085918 2 35 0.0 1.6 0.00 0.00 0.00 99
20260506085414 2 45 0.0 1.6 0.00 0.00 0.00 99
20260506084911 1 48 0.0 1.6 0.00 0.00 0.00 99
20260506084408 1 49 0.0 1.6 0.00 0.00 0.00 99
20260506083904 1 20 0.0 1.6 0.00 0.00 0.00 99
20260506083401 1 14 0.0 1.6 0.00 0.00 0.00 99
20260506082859 2 45 0.0 1.6 0.00 0.00 0.00 99
20260506082355 2 43 0.0 1.6 0.00 0.00 0.00 99
20260506081851 2 31 0.0 1.6 0.00 0.00 0.00 99
20260506081350 2 23 0.0 0.0 0.00 0.00 0.00 99
20260506080847 1 68 0.0 1.6 0.00 0.00 0.00 99
20260506080343 2 44 0.0 0.0 0.00 0.00 0.00 99
20260506073327 2 94 0.0 1.6 0.00 0.00 0.00 99
20260506072824 2 73 0.0 1.6 0.00 0.00 0.00 99
20260506072322 2 78 0.0 1.6 0.00 0.00 0.00 99
20260506071819 2 68 0.0 1.6 0.00 0.00 0.00 99
20260506071317 2 70 0.0 1.6 0.00 0.00 0.00 99
20260506070814 2 85 0.0 1.6 0.00 0.00 0.00 99
20260506070311 2 113 0.0 1.6 0.00 0.00 0.00 99